Location: Borovka
(49.7741°N, 14.5280°E)
Time: 15:44:17
(UTC+00:00)

SL-12 R/B(2) - Pass Details

Date: 17 November 2025
Orbit: 1173 x 2175 km, 63.4° (Epoch: 13 December)

Event Time Altitude Azimuth Distance (km) Brightness Sun altitude
Rises 17:18:27 0° 224° (SW) 4,211 7.6 -19.5°
Reaches altitude 10° 17:21:02 10° 225° (SW) 3,323 7.0 -19.9°
Maximum altitude 17:29:08 84° 313° (NW) 1,505 4.4 -21.2°
Enters shadow 17:36:57 19° 42° (NE) 3,335 5.8 -22.5°
